User: anonymous   Login
Location: Cluj-Napoca
(46.7712°N, 23.6236°E)
Time: 00:09:51
(UTC+02:00)
Language:

BUGSAT 1 - Orbit

View from above orbital plane
View from above orbital plane
View from above satellite
View from above satellite

Ground track
Ground track

The orbit data is extracted from the following two-line orbital elements,

1 40014U 14033E   21335.52196802  .00001383  00000-0  12806-3 0  9992
2 40014  98.1279 321.1470 0030727 335.1281  24.8456 14.95960511406546
Epoch (UTC): 01 December 2021 12:31:38
Eccentricity: 0.0030727
inclination: 98.1279°
perigee height: 558 km
apogee height: 601 km
right ascension of ascending node: 321.1470°
argument of perigee: 335.1281°
revolutions per day: 14.95960511
mean anomaly at epoch: 24.8456°
orbit number at epoch: 40654

The dashed part of the orbit path shows where the satellite is in the earth's shadow,  

DLR